Time,TemperatureF,DewpointF,PressureIn,WindDirection,WindDirectionDegrees,WindSpeedMPH,WindSpeedGustMPH,Humidity,HourlyPrecipIn,Conditions,Clouds,dailyrainin,SoftwareType,DateUTC
2013-10-06 00:01:00,59.1,55.9,30.10,SE,144,0.0,0.0,89,0.00,,,0.00,Wunderground v.1.15,2013-10-06 04:01:00,
2013-10-06 00:03:00,59.0,55.8,30.09,SE,145,0.0,0.0,89,0.00,,,0.00,Wunderground v.1.15,2013-10-06 04:03:00,
2013-10-06 00:04:00,59.0,55.8,30.09,SE,144,0.0,0.0,89,0.00,,,0.00,Wunderground v.1.15,2013-10-06 04:04:00,
2013-10-06 00:06:00,59.0,55.8,30.09,SE,145,0.0,0.0,89,0.00,,,0.00,Wunderground v.1.15,2013-10-06 04:06:00,
2013-10-06 00:07:00,59.0,55.8,30.09,SE,144,0.0,0.0,89,0.00,,,0.00,Wunderground v.1.15,2013-10-06 04:07:00,
2013-10-06 00:09:00,59.0,55.8,30.09,SE,145,0.0,0.0,89,0.00,,,0.00,Wunderground v.1.15,2013-10-06 04:09:00,
2013-10-06 00:16:00,59.0,55.4,30.09,SE,144,0.0,0.0,88,0.00,,,0.00,Wunderground v.1.15,2013-10-06 04:16:00,
2013-10-06 00:22:00,59.0,55.4,30.09,SE,145,0.0,0.0,88,0.00,,,0.00,Wunderground v.1.15,2013-10-06 04:22:00,
2013-10-06 00:28:00,59.0,55.4,30.09,SE,144,0.0,0.0,88,0.00,,,0.00,Wunderground v.1.15,2013-10-06 04:28:00,
2013-10-06 00:34:00,59.0,55.4,30.10,SE,145,0.0,0.0,88,0.00,,,0.00,Wunderground v.1.15,2013-10-06 04:34:00,
2013-10-06 00:41:00,59.0,55.4,30.09,SE,145,0.0,0.0,88,0.00,,,0.00,Wunderground v.1.15,2013-10-06 04:41:00,
2013-10-06 00:47:00,59.0,55.4,30.10,SE,145,0.0,0.0,88,0.00,,,0.00,Wunderground v.1.15,2013-10-06 04:47:00,
2013-10-06 00:53:00,58.9,55.4,30.10,SE,145,0.0,0.0,88,0.00,,,0.00,Wunderground v.1.15,2013-10-06 04:53:00,
2013-10-06 00:58:00,58.8,55.3,30.10,SE,145,0.0,0.0,88,0.00,,,0.00,Wunderground v.1.15,2013-10-06 04:58:00,
2013-10-06 01:04:00,58.8,55.3,30.11,SE,144,0.0,0.0,88,0.00,,,0.00,Wunderground v.1.15,2013-10-06 05:04:00,
2013-10-06 01:09:00,58.8,55.3,30.11,SE,144,0.0,0.0,88,0.00,,,0.00,Wunderground v.1.15,2013-10-06 05:09:00,
2013-10-06 01:16:00,58.8,55.3,30.11,SE,145,0.0,2.0,88,0.00,,,0.00,Wunderground v.1.15,2013-10-06 05:16:00,
2013-10-06 01:21:00,58.9,55.4,30.11,SE,145,1.0,1.0,88,0.00,,,0.00,Wunderground v.1.15,2013-10-06 05:21:00,
2013-10-06 01:27:00,58.9,55.4,30.11,SE,144,0.0,1.0,88,0.00,,,0.00,Wunderground v.1.15,2013-10-06 05:27:00,
2013-10-06 01:33:00,58.8,55.3,30.11,SE,145,0.0,0.0,88,0.00,,,0.00,Wunderground v.1.15,2013-10-06 05:33:00,
2013-10-06 01:39:00,58.8,55.3,30.11,SE,144,0.0,0.0,88,0.00,,,0.00,Wunderground v.1.15,2013-10-06 05:39:00,
2013-10-06 01:46:00,58.8,55.3,30.10,SE,145,0.0,0.0,88,0.00,,,0.00,Wunderground v.1.15,2013-10-06 05:46:00,
2013-10-06 01:52:00,58.8,55.3,30.10,SE,144,0.0,0.0,88,0.00,,,0.00,Wunderground v.1.15,2013-10-06 05:52:00,
2013-10-06 01:58:00,58.8,55.3,30.10,SE,144,0.0,0.0,88,0.00,,,0.00,Wunderground v.1.15,2013-10-06 05:58:00,
2013-10-06 02:04:00,58.7,55.2,30.10,SE,144,0.0,1.0,88,0.00,,,0.00,Wunderground v.1.15,2013-10-06 06:04:00,
2013-10-06 02:09:00,58.7,55.2,30.10,ESE,123,0.0,1.0,88,0.00,,,0.00,Wunderground v.1.15,2013-10-06 06:09:00,
2013-10-06 02:16:00,58.6,55.1,30.10,ESE,119,0.0,1.0,88,0.00,,,0.00,Wunderground v.1.15,2013-10-06 06:16:00,
2013-10-06 02:21:00,58.6,55.1,30.09,ESE,119,0.0,0.0,88,0.00,,,0.00,Wunderground v.1.15,2013-10-06 06:21:00,
2013-10-06 02:26:00,58.6,55.1,30.09,ESE,118,0.0,1.0,88,0.00,,,0.00,Wunderground v.1.15,2013-10-06 06:26:00,
2013-10-06 02:32:00,58.5,55.0,30.10,ESE,118,0.0,1.0,88,0.00,,,0.00,Wunderground v.1.15,2013-10-06 06:32:00,
2013-10-06 02:38:00,58.5,55.0,30.09,ESE,118,0.0,1.0,88,0.00,,,0.00,Wunderground v.1.15,2013-10-06 06:38:00,
2013-10-06 02:43:00,58.5,55.0,30.09,ESE,123,0.0,0.0,88,0.00,,,0.00,Wunderground v.1.15,2013-10-06 06:43:00,
2013-10-06 02:49:00,58.4,54.9,30.09,NE,42,0.0,1.0,88,0.00,,,0.00,Wunderground v.1.15,2013-10-06 06:49:00,
2013-10-06 02:56:00,58.4,54.9,30.09,NE,42,0.0,1.0,88,0.00,,,0.00,Wunderground v.1.15,2013-10-06 06:56:00,
2013-10-06 03:02:00,58.4,54.9,30.09,NE,42,0.0,0.0,88,0.00,,,0.00,Wunderground v.1.15,2013-10-06 07:02:00,
2013-10-06 03:07:00,58.3,54.8,30.09,NE,42,0.0,0.0,88,0.00,,,0.00,Wunderground v.1.15,2013-10-06 07:07:00,
2013-10-06 03:13:00,58.3,54.8,30.09,NE,42,0.0,0.0,88,0.00,,,0.00,Wunderground v.1.15,2013-10-06 07:13:00,
2013-10-06 03:18:00,58.3,54.8,30.09,NE,42,0.0,0.0,88,0.00,,,0.00,Wunderground v.1.15,2013-10-06 07:18:00,
2013-10-06 03:24:00,58.2,54.7,30.09,NE,42,0.0,1.0,88,0.00,,,0.00,Wunderground v.1.15,2013-10-06 07:24:00,
2013-10-06 03:31:00,58.2,54.7,30.08,NE,42,0.0,0.0,88,0.00,,,0.00,Wunderground v.1.15,2013-10-06 07:31:00,
2013-10-06 03:37:00,58.1,54.6,30.08,SE,128,0.0,2.0,88,0.00,,,0.00,Wunderground v.1.15,2013-10-06 07:37:00,
2013-10-06 03:42:00,58.0,54.5,30.08,ESE,122,0.0,0.0,88,0.00,,,0.00,Wunderground v.1.15,2013-10-06 07:42:00,
2013-10-06 03:48:00,57.9,54.4,30.09,ESE,123,0.0,0.0,88,0.00,,,0.00,Wunderground v.1.15,2013-10-06 07:48:00,
2013-10-06 03:54:00,57.8,54.3,30.09,ESE,123,0.0,1.0,88,0.00,,,0.00,Wunderground v.1.15,2013-10-06 07:54:00,
2013-10-06 04:01:00,57.8,54.3,30.09,ESE,123,0.0,0.0,88,0.00,,,0.00,Wunderground v.1.15,2013-10-06 08:01:00,
2013-10-06 04:06:00,57.7,54.2,30.09,ESE,123,0.0,0.0,88,0.00,,,0.00,Wunderground v.1.15,2013-10-06 08:06:00,
2013-10-06 04:12:00,57.6,54.1,30.09,ESE,122,0.0,0.0,88,0.00,,,0.00,Wunderground v.1.15,2013-10-06 08:12:00,
2013-10-06 04:17:00,57.6,54.1,30.09,ESE,123,0.0,0.0,88,0.00,,,0.00,Wunderground v.1.15,2013-10-06 08:17:00,
2013-10-06 04:22:00,57.5,54.0,30.09,ESE,122,0.0,0.0,88,0.00,,,0.00,Wunderground v.1.15,2013-10-06 08:22:00,
2013-10-06 04:27:00,57.5,54.0,30.10,ESE,122,0.0,0.0,88,0.00,,,0.00,Wunderground v.1.15,2013-10-06 08:27:00,
2013-10-06 04:33:00,57.4,53.9,30.10,ESE,122,0.0,0.0,88,0.00,,,0.00,Wunderground v.1.15,2013-10-06 08:33:00,
2013-10-06 04:38:00,57.4,53.9,30.10,ESE,123,0.0,0.0,88,0.00,,,0.00,Wunderground v.1.15,2013-10-06 08:38:00,
2013-10-06 04:44:00,57.4,53.9,30.10,ESE,123,0.0,0.0,88,0.00,,,0.00,Wunderground v.1.15,2013-10-06 08:44:00,
2013-10-06 04:51:00,57.4,53.9,30.10,ESE,123,0.0,0.0,88,0.00,,,0.00,Wunderground v.1.15,2013-10-06 08:51:00,
2013-10-06 04:56:00,57.3,53.8,30.10,ESE,123,0.0,0.0,88,0.00,,,0.00,Wunderground v.1.15,2013-10-06 08:56:00,
2013-10-06 05:02:00,57.4,53.9,30.10,ESE,123,0.0,0.0,88,0.00,,,0.00,Wunderground v.1.15,2013-10-06 09:02:00,
2013-10-06 05:08:00,57.4,53.9,30.10,ESE,123,0.0,0.0,88,0.00,,,0.00,Wunderground v.1.15,2013-10-06 09:08:00,
2013-10-06 05:14:00,57.5,54.0,30.11,ESE,122,0.0,0.0,88,0.00,,,0.00,Wunderground v.1.15,2013-10-06 09:14:00,
2013-10-06 05:19:00,57.5,54.0,30.11,ENE,60,0.0,1.0,88,0.00,,,0.00,Wunderground v.1.15,2013-10-06 09:19:00,
2013-10-06 05:26:00,57.5,54.0,30.11,ENE,61,0.0,1.0,88,0.00,,,0.00,Wunderground v.1.15,2013-10-06 09:26:00,
2013-10-06 05:32:00,57.5,54.0,30.11,ENE,61,0.0,0.0,88,0.00,,,0.00,Wunderground v.1.15,2013-10-06 09:32:00,
2013-10-06 05:37:00,57.5,54.0,30.11,ENE,60,0.0,0.0,88,0.00,,,0.01,Wunderground v.1.15,2013-10-06 09:37:00,
2013-10-06 05:43:00,57.5,54.0,30.12,NW,315,0.0,1.0,88,0.00,,,0.01,Wunderground v.1.15,2013-10-06 09:43:00,
2013-10-06 05:49:00,57.5,54.0,30.12,NW,316,1.0,1.0,88,0.00,,,0.01,Wunderground v.1.15,2013-10-06 09:49:00,
2013-10-06 05:56:00,57.5,54.0,30.12,NW,316,0.0,1.0,88,0.00,,,0.01,Wunderground v.1.15,2013-10-06 09:56:00,
2013-10-06 06:02:00,57.5,54.0,30.13,NW,315,0.0,0.0,88,0.00,,,0.02,Wunderground v.1.15,2013-10-06 10:02:00,
2013-10-06 06:08:00,57.5,54.0,30.12,NE,49,0.0,1.0,88,0.00,,,0.02,Wunderground v.1.15,2013-10-06 10:08:00,
2013-10-06 06:13:00,57.5,54.0,30.12,ESE,105,0.0,0.0,88,0.00,,,0.02,Wunderground v.1.15,2013-10-06 10:13:00,
2013-10-06 06:19:00,57.5,54.0,30.13,ESE,105,0.0,1.0,88,0.00,,,0.02,Wunderground v.1.15,2013-10-06 10:19:00,
2013-10-06 06:24:00,57.5,54.0,30.14,North,350,0.0,1.0,88,0.00,,,0.03,Wunderground v.1.15,2013-10-06 10:24:00,
2013-10-06 06:29:00,57.3,53.8,30.14,North,11,0.0,1.0,88,0.00,,,0.03,Wunderground v.1.15,2013-10-06 10:29:00,
2013-10-06 06:36:00,57.2,53.7,30.13,North,11,0.0,1.0,88,0.00,,,0.03,Wunderground v.1.15,2013-10-06 10:36:00,
2013-10-06 06:42:00,57.2,53.7,30.14,North,10,0.0,1.0,88,0.04,,,0.04,Wunderground v.1.15,2013-10-06 10:42:00,
2013-10-06 06:48:00,57.1,53.6,30.14,North,11,0.0,1.0,88,0.04,,,0.04,Wunderground v.1.15,2013-10-06 10:48:00,
2013-10-06 06:54:00,57.1,53.6,30.14,NE,52,0.0,1.0,88,0.04,,,0.04,Wunderground v.1.15,2013-10-06 10:54:00,
2013-10-06 07:01:00,57.0,53.5,30.14,NE,52,1.0,1.0,88,0.00,,,0.05,Wunderground v.1.15,2013-10-06 11:01:00,
2013-10-06 07:06:00,56.9,53.4,30.14,ESE,111,1.0,2.0,88,0.00,,,0.05,Wunderground v.1.15,2013-10-06 11:06:00,
2013-10-06 07:12:00,56.8,53.3,30.14,East,82,1.0,1.0,88,0.00,,,0.05,Wunderground v.1.15,2013-10-06 11:12:00,
2013-10-06 07:17:00,56.8,53.3,30.14,East,82,0.0,1.0,88,0.04,,,0.06,Wunderground v.1.15,2013-10-06 11:17:00,
2013-10-06 07:23:00,56.8,53.3,30.14,ENE,61,0.0,1.0,88,0.04,,,0.06,Wunderground v.1.15,2013-10-06 11:23:00,
2013-10-06 07:29:00,56.8,53.3,30.14,NE,52,0.0,1.0,88,0.04,,,0.06,Wunderground v.1.15,2013-10-06 11:29:00,
2013-10-06 07:36:00,56.8,53.3,30.14,NE,53,0.0,0.0,88,0.00,,,0.07,Wunderground v.1.15,2013-10-06 11:36:00,
2013-10-06 07:41:00,56.8,53.3,30.14,NE,45,0.0,0.0,88,0.00,,,0.07,Wunderground v.1.15,2013-10-06 11:41:00,
2013-10-06 07:46:00,56.8,53.3,30.14,NE,45,0.0,1.0,88,0.00,,,0.07,Wunderground v.1.15,2013-10-06 11:46:00,
2013-10-06 07:52:00,56.8,53.3,30.15,NE,36,0.0,1.0,88,0.04,,,0.08,Wunderground v.1.15,2013-10-06 11:52:00,
2013-10-06 07:57:00,56.7,53.2,30.15,NE,50,0.0,1.0,88,0.04,,,0.08,Wunderground v.1.15,2013-10-06 11:57:00,
2013-10-06 08:03:00,56.8,53.3,30.15,NNE,32,0.0,2.0,88,0.04,,,0.08,Wunderground v.1.15,2013-10-06 12:03:00,
2013-10-06 08:08:00,56.7,53.5,30.16,ESE,108,1.0,5.0,89,0.00,,,0.08,Wunderground v.1.15,2013-10-06 12:08:00,
2013-10-06 08:14:00,56.6,53.4,30.16,ESE,121,1.0,2.0,89,0.00,,,0.09,Wunderground v.1.15,2013-10-06 12:14:00,
2013-10-06 08:21:00,56.3,52.8,30.16,ENE,59,1.0,1.0,88,0.00,,,0.09,Wunderground v.1.15,2013-10-06 12:21:00,
2013-10-06 08:26:00,56.0,52.8,30.17,NE,56,1.0,2.0,89,0.00,,,0.09,Wunderground v.1.15,2013-10-06 12:26:00,
2013-10-06 08:32:00,55.8,52.3,30.17,East,84,1.0,1.0,88,0.00,,,0.10,Wunderground v.1.15,2013-10-06 12:32:00,
2013-10-06 08:37:00,55.7,52.2,30.17,NE,40,1.0,1.0,88,0.00,,,0.10,Wunderground v.1.15,2013-10-06 12:37:00,
2013-10-06 08:43:00,55.6,52.1,30.17,NE,37,0.0,0.0,88,0.00,,,0.10,Wunderground v.1.15,2013-10-06 12:43:00,
2013-10-06 08:49:00,55.5,52.3,30.17,NE,51,0.0,1.0,89,0.00,,,0.10,Wunderground v.1.15,2013-10-06 12:49:00,
2013-10-06 08:56:00,55.5,52.3,30.17,East,84,1.0,1.0,89,0.00,,,0.11,Wunderground v.1.15,2013-10-06 12:56:00,
2013-10-06 09:02:00,55.5,52.3,30.17,East,99,1.0,2.0,89,0.00,,,0.11,Wunderground v.1.15,2013-10-06 13:02:00,
2013-10-06 09:08:00,55.6,52.1,30.17,ESE,110,0.0,2.0,88,0.00,,,0.11,Wunderground v.1.15,2013-10-06 13:08:00,
2013-10-06 09:13:00,55.6,52.1,30.17,ENE,76,1.0,1.0,88,0.00,,,0.12,Wunderground v.1.15,2013-10-06 13:13:00,
2013-10-06 09:19:00,55.6,52.4,30.18,ENE,71,1.0,1.0,89,0.00,,,0.12,Wunderground v.1.15,2013-10-06 13:19:00,
2013-10-06 09:26:00,55.6,52.1,30.18,ENE,71,0.0,0.0,88,0.00,,,0.12,Wunderground v.1.15,2013-10-06 13:26:00,
2013-10-06 09:32:00,55.7,52.2,30.18,ENE,69,0.0,0.0,88,0.00,,,0.12,Wunderground v.1.15,2013-10-06 13:32:00,
2013-10-06 09:38:00,55.8,52.3,30.18,East,82,0.0,1.0,88,0.00,,,0.13,Wunderground v.1.15,2013-10-06 13:38:00,
2013-10-06 09:43:00,55.7,52.5,30.18,ENE,58,1.0,2.0,89,0.00,,,0.13,Wunderground v.1.15,2013-10-06 13:43:00,
2013-10-06 09:49:00,55.7,52.5,30.18,ENE,57,1.0,2.0,89,0.00,,,0.13,Wunderground v.1.15,2013-10-06 13:49:00,
2013-10-06 09:54:00,55.8,52.6,30.18,ENE,57,1.0,1.0,89,0.00,,,0.13,Wunderground v.1.15,2013-10-06 13:54:00,
2013-10-06 09:59:00,55.9,52.7,30.19,NE,48,1.0,1.0,89,0.00,,,0.13,Wunderground v.1.15,2013-10-06 13:59:00,
2013-10-06 10:06:00,55.9,52.7,30.19,NE,38,0.0,2.0,89,0.00,,,0.14,Wunderground v.1.15,2013-10-06 14:06:00,
2013-10-06 10:12:00,55.9,52.7,30.18,NE,38,0.0,1.0,89,0.00,,,0.14,Wunderground v.1.15,2013-10-06 14:12:00,
2013-10-06 10:18:00,56.0,52.8,30.18,East,86,0.0,1.0,89,0.00,,,0.14,Wunderground v.1.15,2013-10-06 14:18:00,
2013-10-06 10:23:00,56.0,52.8,30.18,ENE,61,0.0,0.0,89,0.00,,,0.14,Wunderground v.1.15,2013-10-06 14:23:00,
2013-10-06 10:29:00,56.1,52.9,30.18,East,79,1.0,2.0,89,0.00,,,0.14,Wunderground v.1.15,2013-10-06 14:29:00,
2013-10-06 10:36:00,56.0,52.8,30.18,NNE,32,1.0,1.0,89,0.00,,,0.15,Wunderground v.1.15,2013-10-06 14:36:00,
2013-10-06 10:42:00,56.0,52.8,30.18,East,101,1.0,1.0,89,0.00,,,0.15,Wunderground v.1.15,2013-10-06 14:42:00,
2013-10-06 10:48:00,56.0,52.8,30.18,East,95,1.0,1.0,89,0.00,,,0.15,Wunderground v.1.15,2013-10-06 14:48:00,
2013-10-06 10:54:00,56.0,52.8,30.18,ENE,76,1.0,2.0,89,0.00,,,0.15,Wunderground v.1.15,2013-10-06 14:54:00,
2013-10-06 11:01:00,55.8,52.6,30.18,ENE,65,1.0,2.0,89,0.00,,,0.15,Wunderground v.1.15,2013-10-06 15:01:00,
2013-10-06 11:06:00,55.6,52.4,30.18,ENE,74,1.0,2.0,89,0.00,,,0.15,Wunderground v.1.15,2013-10-06 15:06:00,
2013-10-06 11:12:00,55.6,52.4,30.18,ENE,60,1.0,2.0,89,0.00,,,0.16,Wunderground v.1.15,2013-10-06 15:12:00,
2013-10-06 11:18:00,55.7,52.5,30.18,ENE,68,1.0,2.0,89,0.00,,,0.16,Wunderground v.1.15,2013-10-06 15:18:00,
2013-10-06 11:24:00,55.7,52.5,30.18,NE,56,2.0,2.0,89,0.00,,,0.16,Wunderground v.1.15,2013-10-06 15:24:00,
2013-10-06 11:31:00,55.7,52.5,30.18,ENE,58,1.0,1.0,89,0.00,,,0.16,Wunderground v.1.15,2013-10-06 15:31:00,
2013-10-06 11:37:00,55.7,52.5,30.18,East,98,1.0,2.0,89,0.00,,,0.16,Wunderground v.1.15,2013-10-06 15:37:00,
2013-10-06 11:43:00,55.5,52.3,30.18,ENE,71,1.0,1.0,89,0.00,,,0.16,Wunderground v.1.15,2013-10-06 15:43:00,
2013-10-06 11:49:00,55.5,52.3,30.18,NE,47,1.0,1.0,89,0.00,,,0.17,Wunderground v.1.15,2013-10-06 15:49:00,
2013-10-06 11:54:00,55.5,52.3,30.18,ENE,57,1.0,2.0,89,0.00,,,0.17,Wunderground v.1.15,2013-10-06 15:54:00,
2013-10-06 12:01:00,55.5,52.3,30.18,NE,53,1.0,1.0,89,0.00,,,0.17,Wunderground v.1.15,2013-10-06 16:01:00,
2013-10-06 12:06:00,55.5,52.3,30.18,ENE,70,1.0,1.0,89,0.00,,,0.17,Wunderground v.1.15,2013-10-06 16:06:00,
2013-10-06 12:12:00,55.3,52.1,30.18,SSE,160,0.0,0.0,89,0.00,,,0.17,Wunderground v.1.15,2013-10-06 16:12:00,
2013-10-06 12:18:00,55.3,52.1,30.18,NE,44,0.0,2.0,89,0.00,,,0.17,Wunderground v.1.15,2013-10-06 16:18:00,
2013-10-06 12:23:00,55.3,52.1,30.18,NE,48,1.0,2.0,89,0.00,,,0.17,Wunderground v.1.15,2013-10-06 16:23:00,
2013-10-06 12:28:00,55.3,52.1,30.17,NE,48,1.0,2.0,89,0.00,,,0.17,Wunderground v.1.15,2013-10-06 16:28:00,
2013-10-06 12:33:00,55.4,52.2,30.17,NE,53,0.0,1.0,89,0.00,,,0.17,Wunderground v.1.15,2013-10-06 16:33:00,
2013-10-06 12:39:00,55.4,52.2,30.17,NE,52,0.0,1.0,89,0.00,,,0.17,Wunderground v.1.15,2013-10-06 16:39:00,
2013-10-06 12:46:00,55.5,52.3,30.17,ENE,57,0.0,1.0,89,0.00,,,0.17,Wunderground v.1.15,2013-10-06 16:46:00,
2013-10-06 12:51:00,55.6,52.4,30.17,NE,55,0.0,1.0,89,0.00,,,0.18,Wunderground v.1.15,2013-10-06 16:51:00,
2013-10-06 12:57:00,55.7,52.5,30.17,NE,53,0.0,1.0,89,0.00,,,0.18,Wunderground v.1.15,2013-10-06 16:57:00,
2013-10-06 13:03:00,55.8,52.6,30.17,NE,55,1.0,1.0,89,0.00,,,0.18,Wunderground v.1.15,2013-10-06 17:03:00,
2013-10-06 13:08:00,55.8,52.6,30.17,NE,45,0.0,1.0,89,0.00,,,0.18,Wunderground v.1.15,2013-10-06 17:08:00,
2013-10-06 13:14:00,55.8,52.6,30.17,NE,45,0.0,0.0,89,0.00,,,0.18,Wunderground v.1.15,2013-10-06 17:14:00,
2013-10-06 13:21:00,55.8,52.6,30.17,ENE,78,0.0,0.0,89,0.00,,,0.18,Wunderground v.1.15,2013-10-06 17:21:00,
2013-10-06 13:27:00,55.7,52.5,30.16,NE,53,0.0,2.0,89,0.00,,,0.18,Wunderground v.1.15,2013-10-06 17:27:00,
2013-10-06 13:33:00,55.8,52.6,30.16,NE,53,0.0,0.0,89,0.00,,,0.18,Wunderground v.1.15,2013-10-06 17:33:00,
2013-10-06 13:38:00,55.9,52.7,30.16,NE,50,0.0,1.0,89,0.00,,,0.18,Wunderground v.1.15,2013-10-06 17:38:00,
2013-10-06 13:44:00,55.9,52.7,30.16,NE,50,0.0,1.0,89,0.00,,,0.19,Wunderground v.1.15,2013-10-06 17:44:00,
2013-10-06 13:51:00,55.8,52.6,30.16,NE,49,0.0,0.0,89,0.00,,,0.19,Wunderground v.1.15,2013-10-06 17:51:00,
2013-10-06 13:57:00,55.8,52.6,30.16,NNE,13,0.0,1.0,89,0.00,,,0.19,Wunderground v.1.15,2013-10-06 17:57:00,
2013-10-06 14:03:00,55.9,52.7,30.15,NNE,13,0.0,0.0,89,0.00,,,0.19,Wunderground v.1.15,2013-10-06 18:03:00,
2013-10-06 14:08:00,56.0,52.8,30.15,NNE,13,0.0,0.0,89,0.00,,,0.19,Wunderground v.1.15,2013-10-06 18:08:00,
2013-10-06 14:14:00,56.1,52.9,30.15,NE,45,0.0,1.0,89,0.00,,,0.20,Wunderground v.1.15,2013-10-06 18:14:00,
2013-10-06 14:21:00,56.2,53.0,30.15,WNW,298,1.0,1.0,89,0.00,,,0.20,Wunderground v.1.15,2013-10-06 18:21:00,
2013-10-06 14:27:00,56.2,53.0,30.15,NE,46,1.0,1.0,89,0.00,,,0.20,Wunderground v.1.15,2013-10-06 18:27:00,
2013-10-06 14:32:00,56.2,53.0,30.15,NE,46,1.0,1.0,89,0.00,,,0.20,Wunderground v.1.15,2013-10-06 18:32:00,
2013-10-06 14:38:00,56.2,53.0,30.15,ENE,67,0.0,2.0,89,0.00,,,0.20,Wunderground v.1.15,2013-10-06 18:38:00,
2013-10-06 14:44:00,56.3,53.1,30.15,ENE,60,0.0,2.0,89,0.00,,,0.21,Wunderground v.1.15,2013-10-06 18:44:00,
2013-10-06 14:51:00,56.4,53.2,30.15,ENE,57,0.0,1.0,89,0.00,,,0.21,Wunderground v.1.15,2013-10-06 18:51:00,
2013-10-06 14:56:00,56.4,53.2,30.15,East,92,0.0,2.0,89,0.00,,,0.21,Wunderground v.1.15,2013-10-06 18:56:00,
2013-10-06 15:02:00,56.5,53.3,30.15,East,88,1.0,1.0,89,0.00,,,0.21,Wunderground v.1.15,2013-10-06 19:02:00,
2013-10-06 15:07:00,56.5,53.3,30.15,ENE,76,1.0,2.0,89,0.00,,,0.21,Wunderground v.1.15,2013-10-06 19:07:00,
2013-10-06 15:13:00,56.4,53.2,30.15,East,88,1.0,1.0,89,0.00,,,0.22,Wunderground v.1.15,2013-10-06 19:13:00,
2013-10-06 15:18:00,56.4,53.2,30.15,NE,45,1.0,2.0,89,0.00,,,0.22,Wunderground v.1.15,2013-10-06 19:18:00,
2013-10-06 15:24:00,56.4,53.2,30.15,NE,40,0.0,0.0,89,0.00,,,0.22,Wunderground v.1.15,2013-10-06 19:24:00,
2013-10-06 15:29:00,56.4,53.2,30.16,NE,40,0.0,1.0,89,0.00,,,0.22,Wunderground v.1.15,2013-10-06 19:29:00,
2013-10-06 15:34:00,56.3,53.1,30.15,NE,40,0.0,1.0,89,0.00,,,0.22,Wunderground v.1.15,2013-10-06 19:34:00,
2013-10-06 15:39:00,56.3,53.1,30.15,NE,53,0.0,1.0,89,0.00,,,0.23,Wunderground v.1.15,2013-10-06 19:39:00,
2013-10-06 15:46:00,56.4,53.2,30.15,NE,53,0.0,0.0,89,0.00,,,0.23,Wunderground v.1.15,2013-10-06 19:46:00,
2013-10-06 15:52:00,56.3,53.1,30.15,NE,53,0.0,1.0,89,0.00,,,0.23,Wunderground v.1.15,2013-10-06 19:52:00,
2013-10-06 15:58:00,56.2,53.0,30.15,East,84,0.0,1.0,89,0.00,,,0.24,Wunderground v.1.15,2013-10-06 19:58:00,
2013-10-06 16:04:00,56.2,53.0,30.15,ENE,77,1.0,1.0,89,0.00,,,0.24,Wunderground v.1.15,2013-10-06 20:04:00,
2013-10-06 16:09:00,56.1,52.9,30.15,East,83,1.0,2.0,89,0.00,,,0.24,Wunderground v.1.15,2013-10-06 20:09:00,
2013-10-06 16:16:00,56.0,52.8,30.15,East,84,1.0,1.0,89,0.00,,,0.25,Wunderground v.1.15,2013-10-06 20:16:00,
2013-10-06 16:22:00,55.9,52.7,30.15,East,87,1.0,1.0,89,0.00,,,0.25,Wunderground v.1.15,2013-10-06 20:22:00,
2013-10-06 16:27:00,55.9,52.7,30.15,East,80,0.0,1.0,89,0.00,,,0.25,Wunderground v.1.15,2013-10-06 20:27:00,
2013-10-06 16:32:00,55.8,52.6,30.15,East,80,0.0,0.0,89,0.00,,,0.25,Wunderground v.1.15,2013-10-06 20:32:00,
2013-10-06 16:38:00,55.7,52.5,30.14,ENE,64,0.0,3.0,89,0.00,,,0.26,Wunderground v.1.15,2013-10-06 20:38:00,
2013-10-06 16:44:00,55.7,52.5,30.14,NE,45,0.0,0.0,89,0.00,,,0.26,Wunderground v.1.15,2013-10-06 20:44:00,
2013-10-06 16:51:00,55.8,52.6,30.14,East,92,0.0,0.0,89,0.00,,,0.26,Wunderground v.1.15,2013-10-06 20:51:00,
2013-10-06 16:57:00,55.8,52.6,30.14,ENE,60,1.0,1.0,89,0.00,,,0.27,Wunderground v.1.15,2013-10-06 20:57:00,
2013-10-06 17:02:00,55.8,52.6,30.14,ENE,60,1.0,1.0,89,0.00,,,0.27,Wunderground v.1.15,2013-10-06 21:02:00,
2013-10-06 17:07:00,55.8,52.6,30.15,ENE,60,1.0,1.0,89,0.00,,,0.27,Wunderground v.1.15,2013-10-06 21:07:00,
2013-10-06 17:13:00,55.7,52.5,30.15,ENE,72,1.0,1.0,89,0.00,,,0.28,Wunderground v.1.15,2013-10-06 21:13:00,
2013-10-06 17:19:00,55.7,52.5,30.15,East,83,0.0,1.0,89,0.00,,,0.28,Wunderground v.1.15,2013-10-06 21:19:00,
2013-10-06 17:26:00,55.6,52.4,30.15,ESE,103,0.0,0.0,89,0.00,,,0.28,Wunderground v.1.15,2013-10-06 21:26:00,
2013-10-06 17:32:00,55.5,52.3,30.15,ESE,102,0.0,1.0,89,0.00,,,0.28,Wunderground v.1.15,2013-10-06 21:32:00,
2013-10-06 17:38:00,55.4,52.2,30.15,ENE,59,1.0,1.0,89,0.00,,,0.29,Wunderground v.1.15,2013-10-06 21:38:00,
2013-10-06 17:44:00,55.4,52.2,30.14,ENE,66,1.0,3.0,89,0.00,,,0.29,Wunderground v.1.15,2013-10-06 21:44:00,
2013-10-06 17:51:00,55.3,52.1,30.15,ENE,60,1.0,1.0,89,0.00,,,0.29,Wunderground v.1.15,2013-10-06 21:51:00,
2013-10-06 17:56:00,55.3,52.1,30.15,ENE,60,0.0,1.0,89,0.00,,,0.29,Wunderground v.1.15,2013-10-06 21:56:00,
2013-10-06 18:02:00,55.2,52.0,30.15,NE,48,1.0,1.0,89,0.00,,,0.30,Wunderground v.1.15,2013-10-06 22:02:00,
2013-10-06 18:08:00,55.1,51.9,30.15,ENE,64,1.0,1.0,89,0.00,,,0.30,Wunderground v.1.15,2013-10-06 22:08:00,
2013-10-06 18:14:00,55.1,51.9,30.15,East,92,0.0,2.0,89,0.00,,,0.30,Wunderground v.1.15,2013-10-06 22:14:00,
2013-10-06 18:19:00,55.1,51.9,30.15,East,93,0.0,2.0,89,0.00,,,0.30,Wunderground v.1.15,2013-10-06 22:19:00,
2013-10-06 18:26:00,55.1,51.9,30.15,East,93,0.0,1.0,89,0.00,,,0.31,Wunderground v.1.15,2013-10-06 22:26:00,
2013-10-06 18:32:00,55.1,51.9,30.15,ENE,62,0.0,2.0,89,0.00,,,0.31,Wunderground v.1.15,2013-10-06 22:32:00,
2013-10-06 18:37:00,55.0,51.8,30.15,ENE,59,1.0,2.0,89,0.00,,,0.31,Wunderground v.1.15,2013-10-06 22:37:00,
2013-10-06 18:43:00,55.0,51.8,30.15,East,83,0.0,1.0,89,0.00,,,0.32,Wunderground v.1.15,2013-10-06 22:43:00,
2013-10-06 18:49:00,55.0,51.8,30.15,East,83,0.0,1.0,89,0.00,,,0.32,Wunderground v.1.15,2013-10-06 22:49:00,
2013-10-06 18:56:00,55.0,51.8,30.15,East,92,1.0,1.0,89,0.00,,,0.32,Wunderground v.1.15,2013-10-06 22:56:00,
2013-10-06 19:02:00,55.0,51.8,30.15,East,92,0.0,1.0,89,0.00,,,0.32,Wunderground v.1.15,2013-10-06 23:02:00,
2013-10-06 19:07:00,54.9,51.7,30.15,ENE,69,0.0,2.0,89,0.00,,,0.33,Wunderground v.1.15,2013-10-06 23:07:00,
2013-10-06 19:13:00,54.8,51.6,30.15,ENE,63,1.0,1.0,89,0.00,,,0.33,Wunderground v.1.15,2013-10-06 23:13:00,
2013-10-06 19:19:00,54.8,51.6,30.15,ENE,63,0.0,1.0,89,0.00,,,0.33,Wunderground v.1.15,2013-10-06 23:19:00,
2013-10-06 19:26:00,54.8,51.6,30.15,ENE,63,0.0,1.0,89,0.00,,,0.33,Wunderground v.1.15,2013-10-06 23:26:00,
2013-10-06 19:32:00,54.8,51.6,30.15,ENE,63,0.0,1.0,89,0.00,,,0.33,Wunderground v.1.15,2013-10-06 23:32:00,
2013-10-06 19:37:00,54.8,51.6,30.15,ENE,63,0.0,1.0,89,0.00,,,0.34,Wunderground v.1.15,2013-10-06 23:37:00,
2013-10-06 19:43:00,54.8,51.6,30.15,ENE,72,1.0,1.0,89,0.00,,,0.34,Wunderground v.1.15,2013-10-06 23:43:00,
2013-10-06 19:49:00,54.8,51.6,30.15,ENE,72,0.0,1.0,89,0.00,,,0.34,Wunderground v.1.15,2013-10-06 23:49:00,
2013-10-06 19:54:00,54.8,51.6,30.15,ENE,69,0.0,1.0,89,0.00,,,0.34,Wunderground v.1.15,2013-10-06 23:54:00,
2013-10-06 20:01:00,54.8,51.6,30.15,NE,48,1.0,1.0,89,0.00,,,0.34,Wunderground v.1.15,2013-10-07 00:01:00,
2013-10-06 20:06:00,54.7,51.5,30.15,NE,49,0.0,1.0,89,0.00,,,0.35,Wunderground v.1.15,2013-10-07 00:06:00,
2013-10-06 20:11:00,54.7,52.4,30.15,ENE,60,0.0,0.0,92,0.00,,,0.35,Wunderground v.1.15,2013-10-07 00:11:00,
2013-10-06 20:17:00,54.6,51.4,30.15,NE,55,0.0,1.0,89,0.00,,,0.35,Wunderground v.1.15,2013-10-07 00:17:00,
2013-10-06 20:22:00,54.6,51.4,30.15,NE,55,1.0,1.0,89,0.00,,,0.35,Wunderground v.1.15,2013-10-07 00:22:00,
2013-10-06 20:28:00,54.7,51.5,30.15,South,175,0.0,1.0,89,0.00,,,0.35,Wunderground v.1.15,2013-10-07 00:28:00,
2013-10-06 20:34:00,54.7,51.5,30.15,SSE,163,0.0,1.0,89,0.00,,,0.35,Wunderground v.1.15,2013-10-07 00:34:00,
2013-10-06 20:41:00,54.6,51.4,30.15,SSE,163,1.0,1.0,89,0.00,,,0.36,Wunderground v.1.15,2013-10-07 00:41:00,
2013-10-06 20:47:00,54.6,51.4,30.15,ENE,68,0.0,1.0,89,0.00,,,0.36,Wunderground v.1.15,2013-10-07 00:47:00,
2013-10-06 20:52:00,54.6,51.4,30.15,ENE,74,0.0,0.0,89,0.00,,,0.36,Wunderground v.1.15,2013-10-07 00:52:00,
2013-10-06 20:58:00,54.6,51.4,30.15,ENE,74,0.0,1.0,89,0.00,,,0.36,Wunderground v.1.15,2013-10-07 00:58:00,
2013-10-06 21:03:00,54.6,51.4,30.15,ENE,74,0.0,1.0,89,0.00,,,0.36,Wunderground v.1.15,2013-10-07 01:03:00,
2013-10-06 21:08:00,54.6,51.4,30.15,ENE,74,0.0,1.0,89,0.00,,,0.37,Wunderground v.1.15,2013-10-07 01:08:00,
2013-10-06 21:14:00,54.6,51.4,30.14,ENE,74,0.0,1.0,89,0.00,,,0.37,Wunderground v.1.15,2013-10-07 01:14:00,
2013-10-06 21:19:00,54.6,51.4,30.14,ENE,74,0.0,1.0,89,0.00,,,0.37,Wunderground v.1.15,2013-10-07 01:19:00,
2013-10-06 21:26:00,54.7,51.5,30.14,ENE,73,0.0,0.0,89,0.00,,,0.37,Wunderground v.1.15,2013-10-07 01:26:00,
2013-10-06 21:32:00,54.7,51.5,30.14,ENE,73,0.0,0.0,89,0.00,,,0.37,Wunderground v.1.15,2013-10-07 01:32:00,
2013-10-06 21:38:00,54.7,51.5,30.14,ENE,71,0.0,0.0,89,0.00,,,0.37,Wunderground v.1.15,2013-10-07 01:38:00,
2013-10-06 21:44:00,54.7,51.5,30.14,ENE,71,0.0,1.0,89,0.00,,,0.37,Wunderground v.1.15,2013-10-07 01:44:00,
2013-10-06 21:51:00,54.8,51.6,30.14,ENE,71,0.0,1.0,89,0.00,,,0.38,Wunderground v.1.15,2013-10-07 01:51:00,
2013-10-06 21:57:00,54.8,51.6,30.14,SSW,195,0.0,1.0,89,0.00,,,0.38,Wunderground v.1.15,2013-10-07 01:57:00,
2013-10-06 22:03:00,54.8,51.9,30.13,SSW,196,0.0,0.0,90,0.00,,,0.38,Wunderground v.1.15,2013-10-07 02:03:00,
2013-10-06 22:08:00,54.8,51.9,30.13,SSW,195,0.0,1.0,90,0.00,,,0.38,Wunderground v.1.15,2013-10-07 02:08:00,
2013-10-06 22:14:00,54.9,52.0,30.13,SSW,195,0.0,1.0,90,0.00,,,0.38,Wunderground v.1.15,2013-10-07 02:14:00,
2013-10-06 22:21:00,54.9,52.0,30.13,SSW,196,0.0,1.0,90,0.00,,,0.38,Wunderground v.1.15,2013-10-07 02:21:00,
2013-10-06 22:26:00,54.9,52.0,30.13,SSW,195,0.0,1.0,90,0.00,,,0.38,Wunderground v.1.15,2013-10-07 02:26:00,
2013-10-06 22:32:00,54.9,52.0,30.12,SSW,195,0.0,0.0,90,0.00,,,0.39,Wunderground v.1.15,2013-10-07 02:32:00,
2013-10-06 22:37:00,54.9,52.0,30.12,SSW,195,0.0,0.0,90,0.00,,,0.39,Wunderground v.1.15,2013-10-07 02:37:00,
2013-10-06 22:43:00,55.0,52.1,30.12,SSW,195,0.0,0.0,90,0.00,,,0.39,Wunderground v.1.15,2013-10-07 02:43:00,
2013-10-06 22:49:00,55.0,52.1,30.12,SSW,196,0.0,0.0,90,0.00,,,0.39,Wunderground v.1.15,2013-10-07 02:49:00,
2013-10-06 22:54:00,55.0,52.1,30.11,SSW,196,0.0,0.0,90,0.00,,,0.39,Wunderground v.1.15,2013-10-07 02:54:00,
2013-10-06 23:01:00,55.0,52.1,30.11,SSW,196,0.0,0.0,90,0.00,,,0.39,Wunderground v.1.15,2013-10-07 03:01:00,
2013-10-06 23:06:00,55.0,52.1,30.11,SSW,196,0.0,0.0,90,0.00,,,0.39,Wunderground v.1.15,2013-10-07 03:06:00,
2013-10-06 23:12:00,55.1,52.2,30.11,SSW,196,0.0,0.0,90,0.00,,,0.39,Wunderground v.1.15,2013-10-07 03:12:00,
2013-10-06 23:17:00,55.1,52.2,30.11,SSW,195,0.0,0.0,90,0.00,,,0.39,Wunderground v.1.15,2013-10-07 03:17:00,
2013-10-06 23:23:00,55.1,52.2,30.11,SSW,196,0.0,0.0,90,0.00,,,0.40,Wunderground v.1.15,2013-10-07 03:23:00,
2013-10-06 23:29:00,55.1,52.2,30.11,SSW,195,0.0,0.0,90,0.00,,,0.40,Wunderground v.1.15,2013-10-07 03:29:00,
2013-10-06 23:36:00,55.1,52.2,30.11,SSW,195,0.0,0.0,90,0.00,,,0.40,Wunderground v.1.15,2013-10-07 03:36:00,
2013-10-06 23:42:00,55.1,52.2,30.10,SSW,195,0.0,0.0,90,0.00,,,0.40,Wunderground v.1.15,2013-10-07 03:42:00,
2013-10-06 23:47:00,55.1,52.2,30.10,SSW,195,0.0,0.0,90,0.00,,,0.40,Wunderground v.1.15,2013-10-07 03:47:00,
2013-10-06 23:53:00,55.1,52.2,30.10,SSW,196,0.0,0.0,90,0.00,,,0.40,Wunderground v.1.15,2013-10-07 03:53:00,
2013-10-06 23:58:00,55.1,52.2,30.10,SSW,196,0.0,0.0,90,0.00,,,0.40,Wunderground v.1.15,2013-10-07 03:58:00,